#timestamp,LO_Frequency,Hit,StdDev 
1569776415.6,286047000.4,N
1569776435.4,286047000.3,N
1569776455.3,286047000.5,N
1569776475.1,286047000.7,N
1569776495.8,286046999.7,N
1569776515.7,286047000.9,N
1569776535.5,286047000.5,N
1569776555.4,286046999.7,N
1569776575.2,286047002.3,N
1569776595.0,286047004.0,Y
1569776595.9,286047004.0,P
1569776615.8,286047002.0,N
1569776635.6,286047002.0,N
1569776655.4,286047002.1,N
1569776675.3,286047002.6,N
1569776695.1,286047002.1,N
1569776715.9,286047001.6,N
1569776735.7,286047003.9,Y
1569776755.5,286047000.6,P
1569776775.4,286046998.1,N
1569776795.2,286046999.4,N
1569776815.1,286046997.5,N
1569776816.0,286046997.5,N
1569776835.8,286046997.4,N
1569776855.6,286046997.5,N
1569776875.5,286046996.8,N
1569776895.3,286046998.9,N
1569776915.1,286046997.4,N
1569776935.9,286046997.4,N
1569776955.7,286046996.5,N
1569776975.6,286046999.6,N
1569776995.4,286046999.1,N
1569777015.2,286047000.8,N
1569777035.1,286046999.4,N
1569777036.0,286046999.4,N
1569777055.8,286046997.0,N
1569777075.6,286046996.9,N
1569777095.5,286046999.5,N
1569777115.3,286046996.6,N
1569777135.2,286046996.8,N
1569777155.0,286046999.1,N
1569777155.9,286046999.1,N
1569777175.8,286047000.3,N
1569777195.6,286047000.4,N
1569777215.4,286047000.4,N
1569777235.3,286047002.3,N
1569777255.1,286047001.7,N
1569777275.9,286047001.4,N
1569777295.7,286047001.9,N
1569777315.5,286047004.3,N
1569777335.4,286047004.1,N
1569777355.2,286047000.2,N
1569777375.1,286047000.4,N
1569777376.0,286047000.4,N
1569777395.8,286047000.6,N
1569777415.6,286047001.2,N
1569777435.5,286046999.1,N
1569777455.3,286046996.7,N
1569777475.2,286046999.4,N
1569777495.9,286046999.0,N
1569777515.7,286046996.5,N
1569777535.6,286046998.3,N
1569777555.4,286046998.3,N
1569777575.2,286046997.5,N
1569777595.1,286046995.3,N
1569777596.0,286046995.3,N
1569777615.8,286046993.5,N
1569777635.7,286046994.4,N
1569777655.5,286046992.4,N
1569777675.3,286046993.0,N
1569777695.2,286046994.3,N
1569777715.0,286046994.0,N
1569777715.9,286046994.0,N
1569777735.8,286046993.8,N
1569777755.6,286046991.8,N
1569777775.4,286046994.3,N
1569777795.3,286046993.6,N
1569777815.1,286046993.3,N
1569777835.9,286046994.5,N
1569777855.7,286046991.8,N
1569777875.5,286046993.0,N
1569777895.4,286046992.8,N
1569777915.1,286046992.4,N
1569777935.8,286046993.2,N
1569777955.7,286046991.1,Y
1569777975.5,286046996.3,P
1569777995.4,286046993.3,P
1569778015.2,286046996.3,P
1569778035.0,286046996.1,Y
1569778035.9,286046996.1,P
1569778055.8,286047000.8,N
1569778075.6,286046998.5,N
1569778095.5,286047001.5,N
1569778115.3,286047002.0,N
1569778135.1,286046998.1,N
1569778155.9,286046998.1,N
1569778175.7,286047000.4,N
1569778195.5,286047000.5,N
1569778215.4,286047000.7,N
1569778235.2,286047000.9,N
1569778255.1,286047000.3,N
1569778256.0,286047000.3,N
1569778275.8,286047000.4,N
1569778295.6,286047000.3,N
1569778315.5,286047001.2,N
1569778335.3,286046998.4,N
1569778355.1,286046998.3,N
1569778375.9,286047000.4,N
1569778395.7,286047001.2,N
1569778415.6,286046999.9,N
1569778435.4,286046999.9,N
1569778455.2,286047002.6,N
1569778475.1,286047001.9,N
1569778476.0,286047001.9,N
1569778495.8,286047002.7,N
1569778515.7,286046999.7,N
1569778535.5,286046999.8,N
1569778555.3,286047002.3,N
1569778575.2,286047002.4,N
1569778595.0,286047002.0,N
1569778595.9,286047002.0,N
1569778615.7,286047000.9,N
1569778635.6,286047000.2,N
1569778655.4,286046999.8,N
1569778675.3,286047005.9,Y
1569778695.1,286047006.0,P
1569778715.8,286047003.4,N
1569778735.7,286046999.9,N
1569778755.5,286046999.2,N
1569778775.4,286047005.9,N
1569778795.2,286047007.9,N
1569778815.0,286047006.3,N
1569778815.9,286047006.3,N
1569778835.8,286047003.4,N
1569778855.6,286047001.8,N
1569778875.4,286047002.6,N
1569778895.3,286047001.2,N
1569778915.1,286046998.9,N
1569778935.9,286046998.3,N
1569778955.7,286046999.6,N
1569778975.5,286046998.9,N
1569778995.4,286046999.2,N
1569779015.2,286046996.8,N
1569779035.0,286046996.7,N
1569779036.0,286046996.7,N
1569779055.8,286046997.5,N
1569779075.6,286046997.6,N
1569779095.5,286046995.1,N
1569779115.3,286046996.2,N
1569779135.1,286046996.2,N
1569779155.9,286046996.1,N
1569779175.7,286046995.5,N
1569779195.6,286046995.7,N
1569779215.4,286046995.7,N
1569779235.2,286046995.8,N
1569779255.1,286046997.7,N
1569779256.0,286046997.7,N
1569779275.8,286046995.4,N
1569779295.6,286046993.3,N
1569779315.5,286046996.2,N
1569779335.3,286046994.0,N
1569779355.2,286046991.8,N
1569779375.0,286046992.6,N
1569779375.9,286046992.6,N
1569779395.8,286046992.8,N
1569779415.6,286046990.5,Y
1569779435.4,286046995.5,P
1569779455.3,286046995.4,P
1569779475.1,286046997.6,P
1569779495.8,286046998.0,N
1569779515.7,286046999.4,N
1569779535.5,286046997.4,N
1569779555.4,286046997.3,N
1569779575.2,286046999.6,N
1569779595.0,286046999.3,N
1569779595.9,286046999.3,N
1569779615.8,286047001.2,N
1569779635.6,286046998.4,N
1569779655.4,286046999.0,N
1569779675.3,286046999.2,N
1569779695.1,286047001.2,N
1569779715.9,286046998.2,N
1569779735.7,286046998.7,N
1569779755.5,286046999.1,N
1569779775.4,286047000.9,N
1569779795.2,286047001.0,N
1569779815.0,286047001.2,N
1569779816.0,286047001.2,N
1569779835.8,286047000.6,N
1569779855.6,286046999.0,N
1569779875.5,286047001.2,N
1569779895.3,286046999.8,N
1569779915.1,286047002.0,N
1569779935.9,286047000.1,N
1569779955.7,286047000.2,N
1569779975.6,286047000.7,N
1569779995.4,286047000.7,N
